Temp_Advection
nan nan nan nan nan nan nan nan nan nan nan nan nan nan nan nan nan nan nan nan nan nan nan nan nan nan nan nan nan nan nan nan nan nan nan nan nan nan nan nan nan nan nan nan nan
nan -0 -0 -0 -0 -0 -0 -0 -0 -0 -0 -1 -1 -1 -1 -1 -2 -1 0 0 0 -0 0 -0 0 0 -0 -0 0 0 -0 -1 -1 -0 -1 -1 -1 -0 0 0 0 0 0 1 nan
nan -1 -1 -0 -1 -0 -0 -0 -0 -0 -0 -0 -1 -1 -1 -1 -1 -0 0 -0 -0 0 0 0 -0 -0 -0 0 -0 0 -0 -1 -1 -1 0 0 -1 -1 0 -0 -1 -0 0 0 nan
nan -1 -1 -1 -1 -1 -0 -0 -0 -0 -0 -0 -0 -1 -1 -1 -0 -0 -0 -0 -0 -0 0 -0 -0 0 0 -0 -1 0 -1 -1 -1 -1 0 0 -0 -0 -0 -0 -1 0 0 0 nan
nan -2 -1 -1 -0 -1 -1 -0 -0 -0 -0 -0 -0 -1 -1 -1 -3 -1 0 -0 -0 -0 0 -0 -1 0 -0 -0 -0 -0 -1 -1 -1 -1 -1 1 1 -0 -1 -1 -0 -0 -0 1 nan
nan -1 -2 -1 -1 -1 -1 -1 -0 -0 -0 0 -0 -0 -0 -1 -0 -0 0 -0 -0 -0 -0 -0 -0 -1 0 0 -0 -1 -0 -1 -1 -1 -1 0 -0 -1 -1 -1 -0 -0 -0 0 nan
nan -0 -1 -2 -1 -1 -1 -1 -0 -0 -0 0 0 0 -2 -6 -1 0 0 0 -0 -0 -0 -1 -0 -0 -0 -0 -0 -0 -0 -1 -1 -0 -0 -0 0 -1 -2 -1 -0 -0 -0 0 nan
nan -0 -1 -2 -2 -1 -1 -1 -0 -0 0 0 0 0 -2 -1 -0 -0 0 -0 -0 -0 -0 -0 -0 -0 -0 -0 -1 -0 -0 -0 -1 -1 -0 0 -0 -2 -2 -0 0 -0 -1 -0 nan
nan -0 -0 -1 -2 -2 -1 -1 -0 0 0 0 0 0 -2 -1 -0 0 -0 -0 -0 -0 -0 0 0 -0 -0 -0 -0 0 0 -1 -2 -1 -1 0 -0 -0 -3 -2 -0 -1 -0 -0 nan
nan -0 -0 -1 -1 -1 -1 -1 -1 0 0 0 0 -0 -3 -1 -0 0 0 0 -0 -0 0 0 1 0 0 0 -0 -0 -1 -1 -1 -0 -0 -0 -1 -1 -1 -3 -1 -1 0 0 nan
nan -0 -0 -1 -1 -1 -1 -1 -1 -0 -0 -0 -0 -2 -2 -1 -0 0 0 -0 -0 1 0 0 0 -0 -1 -1 -1 -0 -0 -1 -1 -0 0 0 -0 -1 -2 -2 -1 -1 -1 -0 nan
nan -0 -0 -1 -0 -0 -0 -1 -0 -1 -1 -3 -3 -2 0 1 -2 -2 0 -0 0 0 -0 0 -1 -2 -1 -0 -0 -0 -0 -1 -1 -0 0 0 -0 -1 -1 -1 -2 -1 -1 -0 nan
nan -0 -0 -1 -0 -0 -0 -0 -0 0 -0 -2 -2 -1 -1 -1 -0 -1 -1 -0 0 -0 0 -0 -1 -1 -0 -0 -0 0 0 -0 -0 -0 1 0 -0 -1 -2 -2 -3 -1 -0 0 nan
nan -0 -0 -1 -0 -0 -0 -1 -0 0 -0 -2 -1 -0 -1 -0 -0 -1 -1 -0 0 0 0 -0 -1 0 0 -0 0 -0 -0 0 0 0 -0 0 1 -1 -2 -2 -2 -1 -0 0 nan
nan -0 -0 -0 -1 -0 -1 -0 -1 -0 -1 -1 -0 0 -0 0 -0 -0 -0 0 0 -0 -0 -0 -0 0 -0 -0 0 0 0 0 0 0 -0 -0 0 -0 -1 -1 -1 -1 -1 -2 nan
nan -0 -0 -0 -0 -0 -0 -0 -0 0 -2 -1 0 -0 0 -0 -0 -0 0 0 0 0 0 -1 -0 0 -0 -0 -0 0 -0 -0 0 0 -0 -1 -0 -0 -1 -1 -2 -1 -1 -0 nan
nan -0 0 -0 -1 -0 -0 -0 -0 -1 -2 -0 -0 0 0 -0 -0 0 0 1 0 0 -0 -1 -0 -1 0 0 -0 0 -0 0 -0 0 -1 -0 0 -0 -1 -2 -1 -1 -1 -1 nan
nan -0 0 -0 -0 -0 -0 -0 -1 -1 -1 -2 -1 -1 0 -0 -0 0 0 0 -0 -0 0 0 -1 -0 0 0 0 0 -0 -0 -0 -0 -1 0 0 -1 -1 -1 -2 -2 0 0 nan
nan -0 -0 -0 0 0 0 -0 -1 -0 -0 -1 -2 -1 -1 -0 0 -0 0 -0 -0 -0 0 -0 -0 -0 -0 0 -0 0 -0 -0 0 0 -0 -0 -1 -1 -0 -2 -3 -1 0 -0 nan
nan -1 -1 -0 0 0 -0 -1 -1 -1 -1 -1 -1 -1 -1 -0 -0 -0 -1 -0 0 -0 -0 -0 -0 -0 -0 -0 -0 0 0 0 0 0 -0 -0 -0 -0 -0 -1 -4 -1 -0 -0 nan
nan -1 -1 -0 0 0 -0 -1 -1 -1 -0 -0 -1 -0 -1 -1 -1 -1 -0 -1 -0 -0 -0 -0 -0 -1 -1 0 0 -0 -0 0 0 -0 0 -0 -1 0 -1 -0 -1 -3 -0 -1 nan
nan -0 -0 0 0 -0 -1 -1 -0 -0 -1 -1 -0 0 0 -0 -0 -0 -1 -0 -1 -0 -0 -0 0 -0 -1 -1 -0 -0 0 -0 0 -0 -0 -0 -1 -1 0 -0 0 -2 -1 -2 nan
nan -1 -1 0 0 -0 -0 -1 -0 -0 -1 -1 -0 0 0 0 -0 -0 -1 -1 -1 -0 -0 -0 0 -0 -1 -1 -0 -0 0 0 -1 -0 1 0 -1 -0 0 -1 -1 -1 -1 -1 nan
nan -0 -0 1 -0 -0 -0 -0 -1 -2 -1 -1 -0 0 0 -0 -0 -0 -1 -1 -1 0 -0 -0 -0 0 -0 -1 -1 -1 -1 0 -0 -0 -0 -1 -2 -1 -0 -0 0 -2 -2 -1 nan
nan -0 0 0 -0 -0 -0 -0 0 -0 -2 -1 0 0 0 0 -0 -0 -0 -0 -1 -0 0 0 0 -0 -1 -0 -0 -0 -1 -1 0 0 -0 -0 -1 -2 -0 -0 -0 -1 -3 -1 nan
nan -0 -0 0 -1 0 -0 -0 -1 1 0 -0 -1 -1 -0 -0 0 0 -0 -0 -0 -1 -0 -0 0 -0 -0 -1 -0 -1 -1 -1 -1 -0 -0 0 -0 -1 -0 -0 0 -0 -1 -2 nan
nan nan nan nan nan nan nan nan nan nan nan nan nan nan nan nan nan nan nan nan nan nan nan nan nan nan nan nan nan nan nan nan nan nan nan nan nan nan nan nan nan nan nan nan nan
Wind_Speed
15 15 15 15 15 16 17 17 18 18 18 19 21 21 21 23 25 23 25 20 14 12 15 13 13 12 13 14 20 22 6 10 17 12 19 20 4 6 8 7 7 12 16 22 22
16 16 16 16 16 15 15 16 18 20 20 21 22 22 21 24 27 21 8 5 11 17 17 19 18 11 12 9 10 8 7 11 11 15 17 18 16 13 2 9 12 15 22 20 19
19 19 18 18 17 17 17 18 18 19 21 22 23 23 20 22 23 3 5 6 2 3 10 14 13 19 21 22 24 15 14 14 20 28 31 22 14 20 10 8 14 9 11 11 23
19 19 18 19 19 19 18 18 19 21 21 22 23 24 21 16 4 3 11 13 12 13 12 5 11 19 7 8 25 15 22 23 25 30 30 19 26 11 16 17 24 22 20 8 23
21 21 20 19 19 20 20 20 20 21 21 22 23 24 21 9 20 9 14 11 11 9 11 12 17 19 10 8 18 14 16 27 30 31 30 32 22 14 16 27 29 29 28 22 15
22 22 21 21 21 22 23 22 22 21 21 22 24 22 16 9 1 4 2 12 14 9 13 12 13 18 16 10 8 16 17 19 26 24 25 14 13 16 22 32 32 31 32 30 27
22 24 24 24 23 23 25 24 22 21 21 22 21 18 20 34 13 16 14 15 15 15 15 15 18 13 14 9 14 13 12 15 17 18 16 22 21 12 31 34 34 35 37 35 28
21 24 26 27 26 25 25 24 21 19 19 18 17 12 14 11 10 12 10 9 11 11 18 14 10 10 4 11 8 6 7 8 10 10 12 12 24 21 35 33 32 34 39 23 18
24 25 28 29 30 27 24 23 21 17 17 16 10 7 14 7 10 1 3 9 6 10 13 13 11 7 7 3 5 4 12 13 20 12 17 16 18 12 38 37 28 27 18 18 24
21 23 28 29 30 26 22 23 16 11 8 9 6 7 16 8 6 11 13 14 13 9 9 12 7 3 1 3 11 6 11 14 15 11 6 12 19 17 32 34 18 22 19 23 26
19 23 26 28 26 19 20 20 11 4 7 11 13 17 24 19 21 25 17 15 17 15 7 9 4 7 18 12 15 13 16 19 17 8 7 11 15 21 25 35 17 20 25 28 29
19 21 24 27 19 11 14 17 10 11 16 29 35 42 45 34 22 35 14 13 10 13 6 7 15 14 13 13 17 20 21 19 13 5 10 10 18 18 21 26 36 18 17 20 18
19 21 24 27 11 7 13 12 9 16 7 22 27 20 20 19 22 27 20 16 9 10 12 14 8 16 17 15 14 17 13 8 12 11 12 9 19 14 23 28 31 28 25 26 18
19 19 21 24 6 9 11 17 17 14 5 8 7 8 14 13 9 30 19 15 8 10 5 11 15 19 19 18 14 17 7 12 14 8 8 5 18 15 22 27 24 22 28 32 24
19 16 16 15 16 11 18 19 20 4 6 4 8 6 18 14 7 9 21 14 8 7 7 9 5 8 13 16 9 12 8 13 9 5 6 10 14 10 13 17 21 16 24 33 42
18 14 15 14 12 11 15 13 9 1 8 6 10 9 10 18 10 4 17 16 8 8 9 16 15 6 8 8 14 3 3 9 3 2 10 9 13 10 13 15 21 17 23 18 35
16 15 16 14 15 10 9 12 1 5 8 7 9 9 12 13 13 13 11 9 6 4 6 13 19 18 13 13 10 3 2 3 3 4 12 5 13 11 14 21 23 23 24 20 36
18 18 21 21 14 10 11 1 9 8 15 17 17 18 8 6 7 9 12 8 7 8 9 11 13 5 4 17 13 8 8 5 7 4 9 4 7 5 12 19 27 32 22 21 34
21 23 26 21 9 7 5 5 6 6 9 14 19 13 10 6 5 10 4 4 4 1 3 5 7 8 11 11 13 8 7 11 8 6 6 4 9 12 7 17 21 13 8 24 32
20 24 26 16 10 14 6 17 11 12 19 15 11 10 13 5 6 8 10 2 3 5 6 6 3 4 9 12 10 6 4 3 3 4 6 6 12 9 6 19 26 9 13 11 33
17 11 11 9 17 11 8 8 14 26 29 9 18 13 13 11 11 10 5 13 10 5 3 6 4 5 6 3 3 6 3 4 2 6 4 3 4 7 11 10 13 19 4 24 14
6 3 3 3 10 5 9 6 11 20 32 19 19 1 8 12 10 9 9 7 17 8 4 2 1 4 7 18 1 4 3 8 7 8 5 7 10 10 6 3 14 19 16 20 18
5 13 23 15 3 8 6 16 20 20 22 18 13 4 6 8 5 6 11 16 16 8 3 3 3 4 7 7 4 4 6 12 16 9 16 7 7 3 7 9 16 20 18 28 17
5 3 4 12 12 8 8 11 15 21 22 25 16 7 6 6 7 7 12 10 20 9 5 5 1 4 6 12 13 12 17 5 4 3 7 8 20 11 3 7 7 24 27 13 28
7 4 8 3 5 9 10 7 14 8 13 15 6 7 7 9 10 8 9 10 12 19 4 4 5 8 14 18 19 19 22 18 14 5 5 7 12 14 7 6 8 24 30 22 17
7 5 6 9 23 7 7 5 15 15 5 7 9 12 9 9 10 4 7 5 2 8 6 3 5 6 14 16 21 21 23 20 17 15 9 14 15 12 9 12 14 17 18 17 22
17 24 12 6 8 7 4 8 9 14 10 9 10 9 9 6 7 5 7 11 8 3 2 1 2 3 17 14 19 17 12 15 18 15 9 14 17 13 12 10 13 17 20 24 27
Wind_Direction
321 320 319 319 320 320 322 321 321 320 321 322 321 323 321 313 304 303 285 288 276 268 274 272 275 231 211 250 248 259 251 249 257 266 273 294 0 204 202 188 225 251 252 255 223
318 317 314 313 312 312 313 316 318 320 322 323 322 323 323 317 312 312 313 270 266 273 266 263 256 232 220 238 239 216 248 241 256 268 278 297 321 314 215 229 229 235 244 255 195
315 313 313 310 309 311 315 315 315 315 318 320 320 321 325 319 321 251 68 32 31 313 274 238 236 236 223 233 241 244 243 252 261 266 279 287 302 313 308 308 284 260 283 198 194
324 323 322 313 309 310 310 311 311 312 315 317 318 319 321 316 287 237 321 304 289 288 298 213 236 257 246 246 246 250 257 258 261 263 267 280 287 292 287 283 297 296 301 266 204
332 330 325 317 310 309 309 309 309 310 312 315 316 317 320 288 264 283 284 293 294 287 252 241 254 252 241 236 252 257 258 265 270 268 265 269 270 269 281 284 284 284 283 278 210
329 332 329 324 315 310 307 309 310 310 310 311 313 311 309 263 315 137 275 298 290 276 276 251 266 273 284 265 253 272 289 287 287 290 293 296 280 266 272 282 271 269 268 259 249
323 323 325 324 319 312 309 307 307 307 305 306 307 304 286 263 270 247 255 248 257 241 268 258 260 273 299 302 313 317 307 302 292 282 280 296 292 285 284 273 272 267 264 260 233
317 319 320 322 322 320 315 311 303 303 296 301 303 286 258 292 267 257 266 287 282 274 249 248 289 310 297 318 329 332 305 287 278 292 286 280 269 270 269 265 261 262 260 235 221
307 311 313 317 322 328 322 316 313 292 289 291 296 249 266 277 264 187 280 261 266 262 262 260 273 275 305 318 317 216 259 258 284 269 281 278 288 297 319 256 254 273 208 228 243
317 315 320 314 320 336 330 332 323 295 284 275 241 270 259 241 191 268 264 267 279 269 250 229 232 176 135 161 242 231 236 259 258 263 309 312 301 297 304 304 255 261 230 231 243
310 317 321 326 332 345 356 5 9 335 319 259 269 244 272 270 266 273 269 274 252 243 227 196 165 211 217 211 239 254 264 269 278 285 292 294 290 290 308 309 257 264 245 231 240
301 312 317 323 345 11 13 10 17 326 302 286 270 257 255 259 281 259 270 236 215 213 212 264 234 221 229 226 229 243 252 259 278 263 281 291 279 283 296 290 285 253 265 269 258
307 307 313 318 338 353 10 12 316 334 273 289 260 249 243 231 239 258 241 224 249 218 218 230 226 220 226 244 244 255 252 262 262 269 249 277 275 276 287 294 279 255 271 270 278
302 305 315 324 346 340 43 1 328 342 293 264 228 259 208 202 237 238 234 199 201 245 235 256 248 243 253 249 225 246 237 270 272 282 271 185 284 283 286 286 281 256 252 251 241
310 297 309 327 329 342 341 340 325 350 309 242 166 198 176 171 322 202 205 213 231 229 168 227 241 238 255 263 264 268 232 235 237 254 302 282 279 285 252 269 280 271 249 242 236
310 287 297 303 310 305 334 325 318 196 248 276 147 185 188 210 252 267 187 210 221 248 260 261 265 254 246 266 240 249 325 292 242 220 262 260 268 266 261 264 278 267 265 277 223
306 287 283 286 290 308 325 346 334 231 281 234 226 195 195 210 231 236 194 193 191 183 257 263 259 252 248 259 274 155 32 297 287 236 251 244 266 261 273 260 254 263 269 289 211
299 296 286 274 294 295 307 309 235 265 241 300 335 316 226 217 268 233 229 228 227 226 258 257 270 275 273 217 218 201 165 190 226 227 269 248 263 244 264 278 297 262 270 168 151
304 297 289 279 270 263 234 214 216 219 261 342 333 304 281 263 282 303 254 261 243 83 235 341 247 357 320 325 196 227 199 221 251 289 288 242 274 291 351 326 310 274 251 164 152
309 309 294 279 225 231 230 238 240 251 286 341 321 295 319 317 319 315 291 315 312 76 49 352 325 334 335 342 316 180 168 239 245 210 244 241 256 253 334 312 309 352 30 346 172
300 303 301 306 196 204 224 229 250 260 274 279 286 307 333 330 336 317 300 319 38 53 73 42 11 310 329 245 266 347 325 219 206 186 227 312 270 81 123 271 335 325 3 343 23
266 263 9 262 193 204 235 234 242 275 285 286 291 324 299 316 315 322 315 314 24 34 346 79 258 292 282 291 163 165 237 319 225 237 225 228 251 270 34 27 345 322 28 328 341
256 273 289 267 245 238 251 258 253 261 268 271 273 220 252 270 295 299 311 319 355 7 7 0 335 344 329 332 342 9 350 328 328 243 240 246 252 352 350 81 314 323 356 333 331
268 288 241 219 243 273 286 279 289 284 262 262 281 267 284 282 285 285 304 310 324 335 111 66 105 243 261 281 311 304 305 272 210 300 339 300 303 344 341 44 354 303 297 272 306
235 256 247 273 243 244 247 259 283 283 307 279 229 249 263 281 291 281 279 276 279 282 210 157 216 240 264 276 288 288 289 289 282 263 197 254 292 290 242 131 208 256 282 292 319
240 235 287 308 276 261 308 254 262 275 228 332 325 303 324 249 261 313 5 19 349 340 358 353 251 262 274 276 278 280 279 280 275 278 272 294 281 257 282 247 255 238 294 325 335
243 256 284 273 306 261 223 288 315 324 293 261 220 232 274 302 349 303 279 270 257 255 325 296 248 260 259 265 286 280 263 271 277 280 278 268 273 297 292 302 45 28 26 24 11
Height
1525 1522 1521 1519 1518 1517 1515 1513 1511 1509 1506 1503 1501 1497 1494 1489 1484 1482 1477 1477 1477 1479 1480 1481 1481 1483 1485 1484 1486 1488 1494 1495 1484 1483 1467 1461 1460 1456 1455 1455 1455 1457 1458 1456 1458
1522 1521 1519 1517 1516 1514 1512 1510 1508 1506 1504 1501 1498 1495 1491 1486 1479 1474 1472 1471 1475 1476 1477 1477 1478 1480 1482 1480 1482 1483 1487 1482 1474 1470 1465 1460 1460 1457 1455 1454 1453 1452 1452 1452 1454
1521 1519 1517 1515 1513 1511 1510 1508 1505 1503 1501 1498 1495 1492 1489 1485 1479 1471 1471 1471 1473 1474 1473 1473 1475 1478 1477 1475 1476 1474 1475 1471 1468 1464 1462 1459 1457 1455 1452 1453 1452 1452 1450 1449 1448
1519 1517 1515 1512 1511 1509 1507 1505 1503 1501 1498 1495 1492 1488 1486 1484 1481 1471 1469 1470 1472 1472 1472 1471 1473 1473 1472 1472 1469 1471 1465 1464 1461 1459 1457 1454 1452 1452 1450 1450 1449 1449 1450 1450 1446
1517 1514 1513 1510 1508 1506 1504 1502 1499 1497 1494 1492 1489 1486 1483 1481 1469 1469 1468 1467 1468 1468 1468 1470 1471 1470 1468 1465 1465 1463 1461 1457 1455 1452 1450 1449 1446 1447 1447 1447 1446 1445 1446 1446 1445
1516 1513 1510 1507 1504 1502 1500 1497 1495 1493 1490 1488 1486 1483 1482 1479 1464 1465 1466 1466 1465 1466 1466 1467 1467 1467 1463 1460 1460 1458 1456 1452 1449 1447 1446 1447 1443 1442 1442 1443 1440 1438 1439 1439 1439
1514 1512 1508 1504 1502 1499 1496 1492 1490 1488 1486 1484 1482 1479 1477 1461 1462 1462 1460 1462 1462 1462 1462 1463 1465 1464 1462 1459 1457 1454 1455 1448 1443 1442 1442 1444 1439 1440 1439 1437 1434 1431 1430 1431 1432
1511 1510 1507 1502 1498 1495 1491 1488 1486 1484 1481 1480 1478 1477 1467 1460 1459 1457 1458 1458 1458 1458 1459 1458 1460 1460 1460 1460 1456 1457 1456 1459 1444 1441 1439 1444 1443 1435 1433 1431 1425 1423 1420 1423 1426
1509 1507 1505 1500 1495 1492 1487 1483 1480 1478 1477 1476 1475 1476 1462 1456 1456 1455 1456 1457 1454 1455 1454 1455 1457 1458 1461 1464 1468 1461 1464 1459 1444 1443 1441 1441 1439 1429 1429 1422 1419 1416 1414 1416 1419
1506 1504 1502 1497 1493 1489 1485 1478 1474 1473 1474 1473 1473 1477 1457 1452 1452 1452 1453 1454 1454 1452 1454 1453 1453 1456 1460 1469 1471 1464 1462 1449 1446 1441 1437 1437 1433 1431 1428 1423 1410 1411 1409 1410 1412
1502 1501 1500 1496 1493 1489 1484 1476 1477 1475 1472 1470 1467 1458 1448 1450 1448 1445 1448 1451 1450 1450 1452 1449 1456 1461 1452 1454 1450 1453 1454 1450 1440 1437 1436 1436 1433 1426 1423 1416 1406 1404 1404 1403 1404
1500 1499 1499 1495 1492 1490 1488 1487 1489 1488 1470 1461 1454 1451 1442 1449 1450 1437 1446 1448 1443 1443 1447 1451 1447 1442 1444 1444 1447 1448 1447 1444 1435 1432 1433 1434 1429 1425 1425 1418 1414 1400 1399 1399 1399
1498 1497 1496 1494 1492 1491 1489 1490 1488 1484 1478 1450 1438 1435 1433 1438 1439 1434 1440 1439 1439 1441 1442 1443 1434 1432 1437 1437 1439 1437 1441 1440 1440 1430 1426 1432 1424 1421 1414 1410 1402 1393 1392 1392 1392
1496 1496 1495 1493 1494 1490 1489 1489 1488 1487 1481 1443 1431 1425 1428 1432 1431 1425 1430 1435 1436 1436 1438 1437 1428 1429 1430 1430 1432 1436 1428 1429 1430 1435 1444 1429 1427 1424 1417 1407 1397 1389 1386 1386 1387
1494 1494 1494 1494 1494 1492 1492 1488 1488 1487 1486 1421 1423 1423 1425 1429 1424 1421 1425 1429 1430 1431 1435 1428 1422 1426 1425 1423 1424 1424 1422 1424 1425 1431 1433 1431 1430 1412 1407 1401 1392 1384 1377 1376 1379
1492 1491 1491 1492 1493 1492 1490 1489 1489 1490 1475 1428 1418 1421 1424 1425 1422 1420 1422 1426 1427 1430 1428 1423 1419 1420 1419 1415 1415 1415 1420 1421 1421 1428 1439 1427 1427 1413 1405 1398 1385 1374 1369 1369 1369
1488 1488 1488 1489 1489 1490 1490 1489 1493 1485 1437 1421 1417 1415 1418 1419 1419 1420 1421 1426 1432 1437 1436 1424 1416 1411 1413 1419 1413 1414 1427 1447 1446 1444 1431 1416 1417 1404 1392 1382 1377 1370 1366 1364 1362
1486 1485 1485 1486 1488 1489 1491 1493 1488 1453 1444 1419 1423 1418 1414 1413 1414 1415 1416 1422 1420 1423 1426 1427 1427 1409 1405 1408 1412 1416 1425 1444 1444 1444 1429 1411 1414 1398 1382 1378 1373 1366 1361 1360 1358
1484 1481 1478 1481 1486 1488 1492 1491 1469 1455 1448 1442 1432 1427 1419 1414 1418 1418 1416 1419 1415 1417 1427 1426 1414 1405 1404 1401 1400 1411 1420 1412 1425 1422 1428 1417 1402 1388 1382 1379 1371 1356 1357 1359 1361
1480 1476 1471 1476 1482 1487 1488 1474 1462 1455 1448 1449 1450 1434 1431 1423 1425 1424 1420 1412 1416 1418 1420 1424 1426 1410 1405 1406 1400 1404 1404 1424 1419 1434 1436 1412 1404 1398 1387 1388 1377 1364 1360 1364 1358
1481 1477 1471 1474 1478 1481 1473 1469 1461 1457 1458 1457 1449 1441 1439 1436 1431 1430 1426 1422 1417 1421 1421 1424 1427 1424 1416 1413 1419 1420 1413 1412 1413 1420 1427 1425 1409 1384 1392 1401 1389 1375 1364 1366 1365
1480 1477 1470 1471 1474 1471 1466 1460 1459 1453 1453 1452 1443 1440 1443 1440 1436 1434 1431 1427 1427 1429 1430 1427 1431 1435 1424 1413 1416 1419 1422 1420 1422 1418 1412 1412 1399 1382 1384 1387 1389 1387 1369 1370 1367
1477 1472 1467 1469 1465 1463 1458 1457 1455 1452 1449 1445 1442 1440 1441 1443 1446 1435 1432 1426 1429 1429 1430 1429 1435 1439 1426 1416 1410 1416 1417 1423 1428 1406 1406 1417 1393 1377 1381 1385 1387 1388 1384 1381 1377
1477 1472 1464 1463 1463 1463 1460 1458 1455 1448 1445 1442 1439 1439 1440 1442 1440 1440 1435 1429 1428 1430 1429 1429 1434 1439 1444 1434 1428 1429 1422 1419 1437 1426 1419 1412 1394 1391 1386 1389 1391 1386 1379 1380 1377
1474 1468 1465 1466 1459 1459 1460 1455 1452 1454 1446 1436 1437 1437 1440 1443 1442 1440 1436 1433 1430 1429 1429 1431 1439 1436 1431 1428 1426 1423 1417 1413 1413 1411 1421 1413 1408 1398 1389 1385 1391 1387 1377 1375 1369
1469 1468 1464 1461 1457 1455 1455 1449 1448 1445 1452 1443 1443 1437 1439 1440 1440 1441 1441 1439 1437 1433 1432 1429 1435 1434 1432 1426 1422 1420 1411 1406 1402 1399 1399 1396 1392 1385 1383 1383 1378 1377 1373 1370 1364
1464 1464 1466 1457 1457 1453 1449 1444 1444 1445 1441 1437 1440 1440 1439 1439 1440 1439 1440 1439 1438 1438 1437 1439 1437 1438 1431 1427 1420 1416 1405 1399 1394 1391 1394 1396 1389 1383 1379 1376 1382 1379 1375 1371 1368